Starlink 2081

operational
NORAD ID: 47366 Int'l Des: 2021-005 Owner: SPXS Country: US Constellation: starlink
LEOCIRCULARSTARLINK_TYPE

About Starlink 2081

Description loading...

Live Position

Loading 3D Globe...

Upcoming Passes

Altitude History

Altitude vs Time

uPlot chart will show altitude changes over time

Two-Line Element Set

1 47366U 21005T 25350.39765509 -.00001533 00000-0 -84052-4 0 9990
2 47366 53.0546 75.5316 0001572 66.8565 293.2590 15.06399933270488
Epoch: Dec 16, 2025 • Age: 22 hours

Current Status

Altitude 553.2 km
Velocity 7.59 km/s
Sub-Earth Point -20.95°S, 147.24°W
Launch Date Jan 20, 2021
Age 4.9 years
Type internet

Technical Details

Classification Payload
Mass 260.00 kg
Dry Mass 248.00 kg
Total Mass 260.00 kg
Length 0.20 m
Diameter 2.80 m
Span 9.00 m
Shape Box + pan
Manufacturer SPXS
Bus Type Starlink
Phase Status In Orbit
Owner/State SPXS/US

Large Constellations

Loading constellations...